Regional Weather Roundup
Issued by NWS

Home | Current Version | Previous Version | Graphics & Text | Print | Product List | Glossary On
Versions: 1 2 3 4 5 6 7 8 9 10 11 12 13 14 15 16 17 18 19 20 21 22 23 24 25 26 27
000
ASUS45 KBOU 240707
RWRCO

WEATHER ROUNDUP FOR COLORADO
NATIONAL WEATHER SERVICE DENVER/BOULDER CO
100 AM MDT MON JUL 24 2017

NOTE: "FAIR" INDICATES FEW OR NO CLOUDS BELOW 12000 FEET WITH NO
SIGNIFICANT WEATHER AND/OR OBSTRUCTIONS TO VISIBILITY.

COZ001>005-013-030-031-240800-
...NORTHWEST COLORADO...

CITY           SKY/WX    TMP DP  RH WIND       PRES   REMARKS
CRAIG          FAIR      57  45  64 CALM      30.18R
HAYDEN         FAIR      64  34  32 CALM      30.20R
MEEKER         FAIR      60  40  47 NE3       30.21R
RABBIT EARS PA FAIR      55  37  50 CALM      30.53S
STEAMBOAT SPGS FAIR      58  41  51 CALM      30.23R
WALDEN         NOT AVBL
$$

COZ006>008-011-240800-
...WEST CENTRAL VALLEYS...

CITY           SKY/WX    TMP DP  RH WIND       PRES   REMARKS
GRAND JUNCTION FAIR      77  48  35 E14       30.08R
MONTROSE       FAIR      69  47  45 S9        30.18S
EAGLE          FAIR      64  46  52 E5        30.26S
RIFLE          FAIR      73  45  36 S3        30.15R
DELTA          FAIR      71  43  36 CALM      30.15S
NUCLA          FAIR      68  46  45 E3        30.22S
$$

COZ017>023-064>068-240800-
...SOUTHWEST COLORADO...

CITY           SKY/WX    TMP DP  RH WIND       PRES   REMARKS
DURANGO        LGT RAIN  63  53  70 W3        30.30R
CORTEZ         FAIR      71  54  54 SE8       30.21R
PAGOSA SPRINGS MOCLDY    65  51  60 CALM      30.36S
TELLURIDE      FAIR      57  46  67 SE3       30.46S
WOLF CREEK PAS CLOUDY    50  39  66 CALM      30.72S
$$

COZ009-010-012-014-032>034-037-058>063-240800-
...CENTRAL COLORADO...

CITY           SKY/WX    TMP DP  RH WIND       PRES   REMARKS
ASPEN          FAIR      66  41  40 SE9       30.33S
BUENA VISTA    FAIR      56  50  82 W3        30.39F
COPPER MTN     FAIR      54  36  50 S15       30.66F
BERTHOUD PASS  FAIR      45  32  61 W13G30    30.69F
COTTONWOOD PAS FAIR      61  37  41 W5        30.52F
GUNNISON       FAIR      59  53  80 N3        30.38F
KREMMLING      FAIR      61  45  55 E6        30.31S
LEADVILLE      FAIR      47  42  83 CALM      30.51S
MONARCH PASS   MOCLDY    50  36  57 W9        30.78F
SALIDA         FAIR      61  49  65 W3        30.44S
SUNLIGHT       FAIR      54  36  50 S5        30.59S
WILKERSON PASS FAIR      48  43  81 S10G18    30.64F
$$

COZ069>075-240800-
...SAN LUIS VALLEY/SANGRE DE CRISTO MOUNTAINS...

CITY           SKY/WX    TMP DP  RH WIND       PRES   REMARKS
ALAMOSA        FAIR      58  53  84 S3        30.34S
DEL NORTE      FAIR      58  45  60 W8        30.38S
LA VETA PASS   NOT AVBL
SAGUACHE         N/A    N/A N/A N/A MISG        N/A
$$

COZ035-036-038>040-240800-
...NORTHERN COLORADO FRONT RANGE...

CITY           SKY/WX    TMP DP  RH WIND       PRES   REMARKS
DENVER INTL AP FAIR      71  53  52 S15       30.14S
DMNS CITY PARK   N/A     75  52  44 SE14G24   30.12F
AURORA         PTCLDY    71  55  56 S17G24    30.17F
FRONT RANGE AP FAIR      73  54  49 S14       30.16F
ERIE MUNI ARPT FAIR      74  49  41 S8        30.09F
BOULDER MUN AP FAIR      68  46  45 SE3       30.10S
CENTENNIAL     FAIR      72  54  53 S16G24    30.19F
BROOMFIELD     FAIR      72  46  40 S12       30.14F
FORT COLLINS   FAIR      68  51  54 SE8       30.09F
LONGMONT       FAIR      67  50  54 CALM      30.10F
$$

COZ041-046-047-076>085-087-088-240800-
...PIKES PEAK/PALMER DIVIDE AND SOUTHERN FOOTHILLS...

CITY           SKY/WX    TMP DP  RH WIND       PRES   REMARKS
COLO. SPRINGS  MOCLDY    68  56  65 E6        30.27F
A. F. ACADEMY  FAIR      66  54  65 SE8       30.27F
SCHRIEVER AFB  MOCLDY    64  54  71 E7        30.27F
CHEYENNE MTN   MOCLDY    69  50  51 S9        30.25F
ELLICOTT       FAIR     N/A N/A N/A S10       30.25S
FALCON           N/A     62  53  73 S3        30.32F
FORT CARSON    CLOUDY    67  55  63 E3        30.23F
LIMON          FAIR      61  57  87 SE7       30.20S
MONUMENT HILL  FAIR      63  54  72 S18       30.31F
CANON CITY     CLEAR     70  59  68 CALM      30.19F
WALSENBURG     FAIR      61  52  72 SW9       30.23F
TRINIDAD       FAIR      64  52  64 S5        30.24S
$$

COZ042>045-048>051-090-091-240800-
...NORTHEAST COLORADO...

CITY           SKY/WX    TMP DP  RH WIND       PRES   REMARKS
GREELEY ARPT   FAIR      74  55  51 S13       30.08F
AKRON          FAIR      71  54  54 S15       30.12F
BURLINGTON     FAIR      68  57  68 S10       30.13S
WRAY           NOT AVBL
YUMA           FAIR      64  50  59 S8        30.09F
STERLING       FAIR      70  55  60 S8        30.06S
HOLYOKE        FAIR      66  55  68 S10       30.07S
FORT MORGAN    FAIR      69  51  53 S7        30.11S
$$

COZ086-089-092>099-240800-
...SOUTHEAST COLORADO...

CITY           SKY/WX    TMP DP  RH WIND       PRES   REMARKS
PUEBLO         FAIR      71  55  56 E5        30.14S
LA JUNTA       FAIR      74  61  63 S7        30.13S
LAMAR          FAIR      72  62  71 S8        30.09S
SPRINGFIELD      N/A     68  61  78 S8        30.14F
$$




USA.gov is the U.S. government's official web portal to all federal, state and local government web resources and services.